This demonstration page uses our WeatherBlox Daily Observations layout. Learn more.

Left ArrowRight Arrow

Hourly Observations for September 28, 2021

Temp ( °F °C ) Dew Point ( °F °C ) Humidity (%) Winds ( mph kmh ) Pressure ( in mb ) Visibility ( mi km ) Precip ( " mm )
12:15 am 00:15 Clear 65 18.3 52 11.3 64 64 SE 8 13 29.80 1009 10 16 N/A
12:35 am 00:35 Clear 64 17.6 53 11.4 67 67 ESE 7 11 29.80 1009 10 16 N/A
12:55 am 00:55 Clear 64 17.7 53 11.4 67 67 ESE 7 11 29.80 1009 10 16 N/A
1:15 am 01:15 Clear 63 17 52 11.1 68 68 ESE 7 11 29.79 1009 10 16 N/A
1:35 am 01:35 Clear 62 16.8 52 11.2 70 70 ESE 6 9 29.79 1009 10 16 N/A
1:55 am 01:55 Clear 61 16.1 52 11.3 73 73 ESE 9 15 29.79 1009 10 16 N/A
2:15 am 02:15 Clear 63 17 53 11.6 71 71 ESE 8 13 29.78 1009 10 16 N/A
2:35 am 02:35 Clear 62 16.6 52 11.3 71 71 ESE 7 11 29.79 1009 10 16 N/A
2:55 am 02:55 Clear 60 15.7 52 11 74 74 E 6 9 29.78 1009 10 16 N/A
3:15 am 03:15 Clear 60 15.6 53 11.5 77 77 E 3 6 29.78 1009 10 16 N/A
3:35 am 03:35 Clear 59 14.8 52 11.1 79 79 ESE 7 11 29.79 1009 10 16 N/A
3:55 am 03:55 Clear 59 15.1 53 11.5 79 79 SE 3 6 29.78 1008 10 16 N/A
4:15 am 04:15 Clear 58 14.6 52 11.3 81 81 N N/A 29.78 1009 10 16 N/A
4:35 am 04:35 Clear 59 15.2 53 11.6 79 79 SE 5 7 29.79 1009 10 16 N/A
4:55 am 04:55 Clear 59 15 53 11.6 80 80 SSE 3 6 29.79 1009 10 16 N/A
5:15 am 05:15 Clear 59 15 53 11.6 80 80 N N/A 29.79 1009 10 16 N/A
5:35 am 05:35 Clear 58 14.4 53 11.4 82 82 N N/A 29.79 1009 10 16 N/A
5:55 am 05:55 Clear 57 13.8 52 11.3 85 85 N N/A 29.80 1009 10 16 N/A
6:15 am 06:15 Clear 57 14 53 11.6 86 86 SE 3 6 29.80 1009 10 16 N/A
6:35 am 06:35 Clear 57 14.1 53 11.5 84 84 SSE 3 6 29.80 1009 10 16 N/A
6:55 am 06:55 Clear 55 12.7 51 10.5 87 87 N N/A 29.81 1009 10 16 N/A
7:15 am 07:15 Clear 56 13.6 53 11.5 87 87 S 6 9 29.80 1009 10 16 N/A
7:35 am 07:35 Sunny 56 13.5 53 11.4 87 87 S 6 9 29.81 1010 10 16 N/A
7:55 am 07:55 Sunny 56 13.5 52 11.2 86 86 S 6 9 29.81 1010 10 16 N/A
8:15 am 08:15 Sunny 58 14.6 53 11.7 83 83 S 7 11 29.80 1009 10 16 N/A
8:35 am 08:35 Sunny 60 15.8 54 12.3 80 80 S 6 9 29.79 1009 10 16 N/A
8:55 am 08:55 Sunny 63 17.1 55 12.6 75 75 S 7 11 29.78 1009 10 16 N/A
9:15 am 09:15 Sunny 66 19 54 12.2 65 65 S 8 13 29.78 1008 10 16 N/A
9:35 am 09:35 Sunny 69 20.8 53 11.9 57 57 S 6 9 29.75 1007 10 16 N/A
9:55 am 09:55 Sunny 72 22.1 54 12 53 53 S 9 15 29.75 1007 10 16 N/A
10:15 am 10:15 Sunny 74 23.1 53 11.6 48 48 S 9 15 29.74 1007 10 16 N/A
10:35 am 10:35 Sunny 75 24.1 53 11.8 46 46 S 8 13 29.73 1007 10 16 N/A
10:55 am 10:55 Sunny 78 25.4 52 11.3 41 41 S 8 13 29.72 1007 10 16 N/A
11:15 am 11:15 Sunny 80 26.6 51 10.7 37 37 SSW 7 11 29.71 1006 10 16 N/A
11:35 am 11:35 Sunny 82 27.5 52 11 36 36 S 3 6 29.70 1006 10 16 N/A
11:55 am 11:55 Sunny 84 28.9 53 11.5 34 34 SSE 7 11 29.69 1005 10 16 N/A
12:15 pm 12:15 Sunny 84 28.8 52 11.3 34 34 S 8 13 29.69 1005 10 16 N/A
12:35 pm 12:35 Sunny 85 29.7 53 11.9 33 33 S 8 13 29.68 1005 10 16 N/A
12:55 pm 12:55 Sunny 85 29.4 53 11.5 33 33 S 12 19 29.68 1005 10 16 N/A
1:15 pm 13:15 Sunny 85 29.7 54 12.1 34 34 SSE 12 19 29.67 1005 10 16 N/A
1:35 pm 13:35 Sunny 87 30.4 51 10.8 30 30 SSE 12 19 29.67 1005 10 16 N/A
1:55 pm 13:55 Sunny 88 30.9 51 10.7 29 29 S 12 19 29.65 1004 10 16 N/A
2:15 pm 14:15 Sunny 90 32 52 11 27 27 S 15 24 29.63 1003 10 16 N/A
2:35 pm 14:35 Sunny 89 31.5 51 10.6 28 28 S 16 26 29.63 1003 10 16 N/A
2:55 pm 14:55 Sunny 88 31.2 52 11 29 29 SSE 14 22 29.63 1003 10 16 N/A
3:15 pm 15:15 Sunny 87 30.3 52 11.2 31 31 SSE 14 22 29.63 1003 10 16 N/A
3:35 pm 15:35 Sunny 89 31.5 52 11.3 29 29 SSE 17 28 29.61 1003 10 16 N/A
3:55 pm 15:55 Sunny 89 31.5 52 11.2 29 29 SSE 15 24 29.61 1003 10 16 N/A
4:15 pm 16:15 Sunny 89 31.6 51 10.3 27 27 SSE 17 28 29.61 1003 10 16 N/A
4:35 pm 16:35 Sunny 89 31.4 51 10.5 28 28 SSE 18 30 29.61 1003 10 16 N/A
4:55 pm 16:55 Sunny 87 30.7 52 10.9 29 29 SSE 15 24 29.60 1002 10 16 N/A
5:15 pm 17:15 Sunny 87 30.5 53 11.5 31 31 SSE 18 30 29.60 1003 10 16 N/A
5:35 pm 17:35 Sunny 87 30.5 53 11.4 31 31 SSE 14 22 29.60 1003 10 16 N/A
5:55 pm 17:55 Sunny 86 30.1 53 11.6 32 32 SSE 15 24 29.60 1002 10 16 N/A
6:15 pm 18:15 Sunny 85 29.6 53 11.5 33 33 SSE 14 22 29.60 1002 10 16 N/A
6:35 pm 18:35 Sunny 84 29 53 11.8 35 35 SE 13 20 29.61 1003 10 16 N/A
6:55 pm 18:55 Sunny 82 28 54 12.1 37 37 SE 8 13 29.61 1003 10 16 N/A
7:15 pm 19:15 Sunny 80 26.6 55 12.9 43 43 SE 8 13 29.63 1003 10 16 N/A
7:35 pm 19:35 Clear 77 25.2 56 13.1 47 47 SE 8 13 29.64 1004 10 16 N/A
7:55 pm 19:55 Clear 74 23.3 56 13.3 54 54 SE 8 13 29.65 1004 10 16 N/A
8:15 pm 20:15 Clear 73 22.7 56 13.5 56 56 SE 8 13 29.67 1005 10 16 N/A
8:35 pm 20:35 Clear 71 21.6 56 13.5 60 60 ESE 8 13 29.67 1005 10 16 N/A
8:55 pm 20:55 Clear 71 21.6 57 13.7 61 61 SE 8 13 29.68 1005 10 16 N/A
9:15 pm 21:15 Clear 69 20.8 57 14 65 65 SE 8 13 29.70 1006 10 16 N/A
9:35 pm 21:35 Clear 69 20.5 57 14 66 66 SE 8 13 29.70 1006 10 16 N/A
9:55 pm 21:55 Clear 71 21.5 57 14 62 62 SE 10 17 29.70 1006 10 16 N/A
10:15 pm 22:15 Clear 70 21.3 57 14 63 63 SE 9 15 29.70 1006 10 16 N/A
10:35 pm 22:35 Clear 70 20.9 57 13.8 64 64 SE 9 15 29.71 1006 10 16 N/A
10:55 pm 22:55 Clear 70 21.1 56 13.5 62 62 SE 10 17 29.71 1006 10 16 N/A
11:15 pm 23:15 Clear 71 21.5 55 13 59 59 SE 10 17 29.71 1006 10 16 N/A
11:35 pm 23:35 Clear 70 21.1 54 12.4 58 58 SE 10 17 29.71 1006 10 16 N/A
11:55 pm 23:55 Clear 70 21.1 54 12 56 56 SSE 12 19 29.72 1006 10 16 N/A

Powered by AerisWeather